San Angelo, TX

8:23 PM CDT on August 22, 2017 (GMT -0500)
San Angelo Regional-Mathis

Weather History for KSJT - May, 2013

Change the Weather History Date:

Friday, May 3, 2013

  Actual Average Record
Temperature  
Mean Temperature 53 °F 71 °F  
Max Temperature 71 °F 85 °F 103 °F (1927)
Min Temperature 35 °F 58 °F 35 °F (2013)
Degree Days  
Heating Degree Days 12 1  
Month to date heating degree days 22 3  
Since 1 July heating degree days 1909 2309  
Cooling Degree Days 0 7  
Month to date cooling degree days 17 20  
Year to date cooling degree days 266 176  
Growing Degree Days 3 (Base 50)    
Moisture  
Dew Point 21 °F    
Average Humidity 41    
Maximum Humidity 70    
Minimum Humidity 11    
Precipitation  
Precipitation 0.00 in 0.07 in 1.35 in (1918)
Month to date precipitation 0.01 0.21  
Year to date precipitation 2.82 5.41  
Sea Level Pressure  
Sea Level Pressure 30.28 in    
Wind  
Wind Speed 8 mph (WNW)    
Max Wind Speed 20 mph    
Max Gust Speed 24 mph    
Visibility 10 miles    
Events      
T = Trace of Precipitation, MM = Missing Value Source: NWS Daily Summary

Daily Weather History Graph

Daily Weather History Graph

Search for Another Location

Airport or City:

Trip Planner

Search our weather history database for the weather conditions in past years. The results will help you decide how hot, cold, wet, or windy it might be!

Date:

Astronomy

May. 03, 2013 Rise Set
Actual Time 6:55 AM CDT 8:23 PM CDT
Civil Twilight 6:29 AM CDT 8:49 PM CDT
Nautical Twilight 5:58 AM CDT 9:20 PM CDT
Astronomical Twilight 5:25 AM CDT 9:52 PM CDT
Moon 2:56 AM CDT (5/3) 2:41 PM CDT (5/3)
Length of Visible Light 14h 19m
Length of Day
13h 28m
Last Quarter, 37% of the Moon is Illuminated
May 3
Last Quarter
May 9
New
May 17
First Quarter
May 24
Full
May 31
Last Quarter

Hourly Weather History & Observations

Time (CDT) Temp. Windchill Dew Point Humidity Pressure Visibility Wind Dir Wind Speed Gust Speed Precip Events Conditions
12:51 AM 44.1 °F 39.0 °F 28.9 °F 55% 30.45 in 10.0 mi NW 9.2 mph - N/A   Clear
1:51 AM 42.1 °F 37.1 °F 28.9 °F 60% 30.46 in 10.0 mi WNW 8.1 mph - N/A   Clear
2:51 AM 41.0 °F 35.8 °F 28.9 °F 62% 30.44 in 10.0 mi NW 8.1 mph - N/A   Clear
3:51 AM 41.0 °F 35.8 °F 28.0 °F 60% 30.43 in 10.0 mi WNW 8.1 mph - N/A   Clear
4:51 AM 37.9 °F 32.7 °F 28.0 °F 68% 30.43 in 10.0 mi West 6.9 mph - N/A   Clear
5:51 AM 37.0 °F 30.4 °F 27.0 °F 67% 30.42 in 10.0 mi West 9.2 mph - N/A   Clear
6:51 AM 35.1 °F 30.1 °F 27.0 °F 72% 30.42 in 10.0 mi West 5.8 mph - N/A   Clear
7:51 AM 39.9 °F 33.4 °F 26.1 °F 58% 30.43 in 10.0 mi WNW 10.4 mph - N/A   Clear
8:51 AM 48.0 °F - 25.0 °F 41% 30.42 in 10.0 mi NW 10.4 mph - N/A   Clear
9:51 AM 54.0 °F - 24.1 °F 31% 30.40 in 10.0 mi NNW 10.4 mph - N/A   Clear
10:51 AM 57.0 °F - 19.9 °F 24% 30.38 in 10.0 mi North 13.8 mph 20.7 mph N/A   Clear
11:51 AM 59.0 °F - 17.1 °F 20% 30.36 in 10.0 mi North 9.2 mph 17.3 mph N/A   Clear
12:51 PM 62.1 °F - 14.0 °F 15% 30.31 in 10.0 mi North 8.1 mph 19.6 mph N/A   Clear
1:51 PM 64.0 °F - 16.0 °F 16% 30.27 in 10.0 mi WNW 10.4 mph - N/A   Clear
2:51 PM 64.0 °F - 15.1 °F 15% 30.22 in 10.0 mi Variable 5.8 mph - N/A   Clear
3:51 PM 69.1 °F - 14.0 °F 12% 30.17 in 10.0 mi NW 9.2 mph 18.4 mph N/A   Clear
4:51 PM 68.0 °F - 14.0 °F 12% 30.13 in 10.0 mi WSW 8.1 mph - N/A   Clear
5:51 PM 69.1 °F - 14.0 °F 12% 30.10 in 10.0 mi Variable 3.5 mph - N/A   Clear
6:51 PM 70.0 °F - 14.0 °F 12% 30.07 in 10.0 mi West 6.9 mph - N/A   Clear
7:51 PM 68.0 °F - 12.9 °F 12% 30.06 in 10.0 mi WNW 3.5 mph - N/A   Clear
8:51 PM 59.0 °F - 15.1 °F 18% 30.07 in 10.0 mi South 4.6 mph - N/A   Clear
9:51 PM 55.0 °F - 19.0 °F 24% 30.07 in 10.0 mi SSW 5.8 mph - N/A   Clear
10:51 PM 51.1 °F - 19.0 °F 28% 30.07 in 10.0 mi South 8.1 mph - N/A   Clear
11:51 PM 51.1 °F - 19.0 °F 28% 30.06 in 10.0 mi South 8.1 mph - N/A   Clear